Stündliche Wetter Caxhuacán

Heute, 16 Januar, Samstag

Zeit Temperatur Niederschläge Wind Luftdruck Luftfeuchtigkeit
00:00 +14°C° 0.1 mm 1 m/S 700 mmHg 88%
01:00 +14°C° 0.1 mm 1 m/S 700 mmHg 89%
02:00 +14°C° 0.1 mm 1 m/S 700 mmHg 89%
03:00 +13°C° 0 mm 0 m/S 700 mmHg 90%
04:00 +13°C° 0 mm 0 m/S 700 mmHg 90%
05:00 +13°C° 0 mm 0 m/S 701 mmHg 91%
06:00 +13°C° 0 mm 0 m/S 701 mmHg 91%
07:00 +13°C° 0 mm 0 m/S 701 mmHg 91%
08:00 +13°C° 0 mm 0 m/S 701 mmHg 92%
09:00 +15°C° 0 mm 1 m/S 701 mmHg 90%
10:00 +15°C° 0 mm 1 m/S 701 mmHg 88%
11:00 +15°C° 0 mm 1 m/S 701 mmHg 86%
12:00 +16°C° 0 mm 1 m/S 700 mmHg 86%
13:00 +16°C° 0 mm 1 m/S 698 mmHg 85%
14:00 +16°C° 0 mm 1 m/S 697 mmHg 85%
15:00 +16°C° 0.1 mm 1 m/S 698 mmHg 87%
16:00 +15°C° 0.1 mm 1 m/S 698 mmHg 89%
17:00 +15°C° 0.1 mm 1 m/S 698 mmHg 91%
18:00 +15°C° 0.7 mm 1 m/S 698 mmHg 92%
19:00 +15°C° 0.7 mm 1 m/S 698 mmHg 92%
20:00 +15°C° 0.7 mm 1 m/S 699 mmHg 93%
21:00 +15°C° 0.6 mm 1 m/S 699 mmHg 93%
22:00 +15°C° 0.6 mm 1 m/S 698 mmHg 94%
23:00 +14°C° 0.6 mm 0 m/S 698 mmHg 94%

Morgen, 17 Januar, Sonntag

Zeit Temperatur Niederschläge Wind Luftdruck Luftfeuchtigkeit
00:00 +14°C° 0.3 mm 0 m/S 698 mmHg 93%
01:00 +15°C° 0.3 mm 1 m/S 697 mmHg 93%
02:00 +15°C° 0.3 mm 1 m/S 696 mmHg 92%
03:00 +15°C° 0.1 mm 1 m/S 696 mmHg 91%
04:00 +15°C° 0.1 mm 1 m/S 697 mmHg 90%
05:00 +15°C° 0.1 mm 1 m/S 697 mmHg 90%
06:00 +16°C° 0 mm 1 m/S 697 mmHg 87%
07:00 +18°C° 0 mm 1 m/S 698 mmHg 85%
08:00 +17°C° 0 mm 0 m/S 698 mmHg 82%
09:00 +20°C° 0.1 mm 1 m/S 699 mmHg 79%
10:00 +20°C° 0.1 mm 2 m/S 699 mmHg 76%
11:00 +21°C° 0.1 mm 2 m/S 699 mmHg 74%
12:00 +20°C° 0.2 mm 2 m/S 699 mmHg 77%
13:00 +20°C° 0.2 mm 2 m/S 698 mmHg 79%
14:00 +19°C° 0.2 mm 2 m/S 697 mmHg 82%
15:00 +20°C° 0.1 mm 1 m/S 697 mmHg 85%
16:00 +19°C° 0.1 mm 1 m/S 698 mmHg 88%
17:00 +19°C° 0.1 mm 1 m/S 698 mmHg 91%
18:00 +16°C° 0 mm 0 m/S 699 mmHg 92%
19:00 +16°C° 0 mm 0 m/S 699 mmHg 93%
20:00 +16°C° 0 mm 0 m/S 700 mmHg 94%
21:00 +16°C° 0 mm 0 m/S 700 mmHg 95%
22:00 +15°C° 0 mm 0 m/S 699 mmHg 95%
23:00 +15°C° 0 mm 0 m/S 699 mmHg 95%

übermorgen, 18 Januar, Montag

Zeit Temperatur Niederschläge Wind Luftdruck Luftfeuchtigkeit
00:00 +15°C° 0 mm 0 m/S 699 mmHg 95%
01:00 +15°C° 0 mm 0 m/S 699 mmHg 95%
02:00 +14°C° 0 mm 0 m/S 698 mmHg 95%
03:00 +14°C° 0 mm 0 m/S 698 mmHg 94%
04:00 +15°C° 0 mm 0 m/S 698 mmHg 94%
05:00 +15°C° 0 mm 0 m/S 699 mmHg 93%
06:00 +16°C° 0 mm 0 m/S 699 mmHg 89%
07:00 +17°C° 0 mm 0 m/S 700 mmHg 84%
08:00 +18°C° 0 mm 0 m/S 700 mmHg 80%
09:00 +21°C° 0 mm 1 m/S 700 mmHg 77%
10:00 +22°C° 0 mm 1 m/S 700 mmHg 74%
11:00 +23°C° 0 mm 2 m/S 700 mmHg 72%
12:00 +21°C° 0.2 mm 2 m/S 699 mmHg 77%
13:00 +21°C° 0.2 mm 2 m/S 698 mmHg 82%
14:00 +21°C° 0.2 mm 1 m/S 697 mmHg 88%
15:00 +20°C° 0.3 mm 1 m/S 697 mmHg 90%
16:00 +20°C° 0.3 mm 1 m/S 697 mmHg 92%
17:00 +18°C° 0.3 mm 0 m/S 697 mmHg 94%
18:00 +17°C° 0.3 mm 0 m/S 697 mmHg 94%
19:00 +19°C° 0.3 mm 1 m/S 698 mmHg 93%
20:00 +18°C° 0.3 mm 1 m/S 698 mmHg 93%
21:00 +18°C° 0 mm 1 m/S 698 mmHg 92%
22:00 +18°C° 0 mm 1 m/S 698 mmHg 91%
23:00 +18°C° 0 mm 1 m/S 698 mmHg 91%

19 Januar, Dienstag

Zeit Temperatur Niederschläge Wind Luftdruck Luftfeuchtigkeit
00:00 +18°C° 0 mm 1 m/S 698 mmHg 90%
01:00 +16°C° 0 mm 1 m/S 698 mmHg 90%
02:00 +16°C° 0 mm 1 m/S 697 mmHg 89%
03:00 +16°C° 0 mm 1 m/S 698 mmHg 89%
04:00 +16°C° 0 mm 1 m/S 698 mmHg 88%
05:00 +16°C° 0 mm 1 m/S 698 mmHg 88%
06:00 +18°C° 0 mm 1 m/S 699 mmHg 84%
07:00 +20°C° 0 mm 1 m/S 699 mmHg 81%
08:00 +19°C° 0 mm 0 m/S 700 mmHg 77%
09:00 +22°C° 0 mm 1 m/S 700 mmHg 74%
10:00 +24°C° 0 mm 1 m/S 700 mmHg 70%
11:00 +25°C° 0 mm 2 m/S 700 mmHg 67%
12:00 +25°C° 0.1 mm 2 m/S 699 mmHg 69%
13:00 +25°C° 0.1 mm 2 m/S 699 mmHg 72%
14:00 +24°C° 0.1 mm 2 m/S 698 mmHg 74%
15:00 +23°C° 0.1 mm 2 m/S 698 mmHg 80%
16:00 +22°C° 0.1 mm 1 m/S 698 mmHg 86%
17:00 +21°C° 0.1 mm 1 m/S 698 mmHg 91%
18:00 +21°C° 0 mm 1 m/S 699 mmHg 93%
19:00 +20°C° 0 mm 1 m/S 699 mmHg 94%
20:00 +18°C° 0 mm 0 m/S 700 mmHg 96%
21:00 +18°C° 0 mm 0 m/S 700 mmHg 95%
22:00 +18°C° 0 mm 0 m/S 700 mmHg 95%
23:00 +18°C° 0 mm 0 m/S 700 mmHg 95%

20 Januar, Mittwoch

Zeit Temperatur Niederschläge Wind Luftdruck Luftfeuchtigkeit
00:00 +17°C° 0.1 mm 0 m/S 700 mmHg 94%
01:00 +17°C° 0.1 mm 0 m/S 700 mmHg 94%
02:00 +17°C° 0.1 mm 0 m/S 700 mmHg 94%
03:00 +17°C° 0 mm 0 m/S 700 mmHg 93%
04:00 +17°C° 0 mm 0 m/S 700 mmHg 93%
05:00 +16°C° 0 mm 0 m/S 700 mmHg 92%
06:00 +18°C° 0 mm 0 m/S 701 mmHg 88%
07:00 +19°C° 0 mm 0 m/S 702 mmHg 84%
08:00 +20°C° 0 mm 0 m/S 702 mmHg 80%
09:00 +22°C° 0 mm 1 m/S 702 mmHg 80%
10:00 +23°C° 0 mm 1 m/S 702 mmHg 79%
11:00 +23°C° 0 mm 2 m/S 702 mmHg 79%
12:00 +24°C° 0.2 mm 2 m/S 701 mmHg 78%
13:00 +24°C° 0.2 mm 2 m/S 701 mmHg 77%
14:00 +24°C° 0.2 mm 2 m/S 700 mmHg 77%
15:00 +23°C° 0.2 mm 1 m/S 700 mmHg 82%
16:00 +22°C° 0.2 mm 1 m/S 700 mmHg 88%
17:00 +21°C° 0.2 mm 1 m/S 700 mmHg 94%
18:00 +21°C° 0 mm 1 m/S 700 mmHg 94%
19:00 +20°C° 0 mm 1 m/S 701 mmHg 95%
20:00 +18°C° 0 mm 0 m/S 701 mmHg 95%
21:00 +18°C° 0 mm 0 m/S 701 mmHg 94%
22:00 +17°C° 0 mm 0 m/S 701 mmHg 92%
23:00 +17°C° 0 mm 0 m/S 701 mmHg 91%

21 Januar, Donnerstag

Zeit Temperatur Niederschläge Wind Luftdruck Luftfeuchtigkeit
00:00 +17°C° 0 mm 0 m/S 701 mmHg 90%
01:00 +17°C° 0 mm 0 m/S 701 mmHg 89%
02:00 +19°C° 0 mm 1 m/S 701 mmHg 88%
03:00 +18°C° 0 mm 1 m/S 700 mmHg 86%
04:00 +18°C° 0 mm 1 m/S 700 mmHg 84%
05:00 +18°C° 0 mm 1 m/S 700 mmHg 82%
06:00 +19°C° 0 mm 1 m/S 701 mmHg 78%
07:00 +18°C° 0 mm 0 m/S 702 mmHg 74%
08:00 +20°C° 0 mm 0 m/S 702 mmHg 70%
09:00 +23°C° 0 mm 1 m/S 702 mmHg 68%
10:00 +24°C° 0 mm 1 m/S 702 mmHg 65%
11:00 +26°C° 0 mm 2 m/S 701 mmHg 63%
12:00 +26°C° 0 mm 2 m/S 700 mmHg 64%
13:00 +26°C° 0 mm 2 m/S 699 mmHg 65%
14:00 +26°C° 0 mm 2 m/S 698 mmHg 67%
15:00 +25°C° 0 mm 2 m/S 698 mmHg 74%
16:00 +24°C° 0 mm 1 m/S 698 mmHg 81%
17:00 +22°C° 0 mm 1 m/S 698 mmHg 88%
18:00 +22°C° 0 mm 1 m/S 698 mmHg 90%
19:00 +21°C° 0 mm 1 m/S 698 mmHg 92%
20:00 +18°C° 0 mm 0 m/S 699 mmHg 94%
21:00 +20°C° 0 mm 1 m/S 698 mmHg 92%
22:00 +20°C° 0 mm 1 m/S 698 mmHg 90%
23:00 +20°C° 0 mm 1 m/S 698 mmHg 87%
Mehr zeigen

Wir brauchen deine Erlaubnis

Meteoprog und unser Service Anbieter werden persönliche Daten aufbewahren, so wie Cookies, Geräte Bezeichnung oder ähnliche Technologien von deinem Gerät und Prozess, so wie Persönliche Daten Inhalte und Werbungen, genauso wie social Media und den Verkehr zu analysieren.

  • Aufbewahrung und/oder Zugang zu deiner Geräte Informationen.

    Cookies, Geräte Bezeichnung oder andere Informationen, können aufbewahrt oder Zugang zu deinem Gerät erhalten, für den Grund, der oben angegeben wird.

  • Personalisierte Werbung und Inhalte, Messungen, Einblick in das Publikum und Produkt Entwicklung.

    Werbungen und Inhalte können personalisiert werden, basierend auf ein Profil. Mehr Daten können besser personalisierte Werbungen und Inhalte hinzufügen. Werbung und Inhalte können gezeigt und gemessen werden. Einblicke über das Publikum, welche die Werbung gesehen haben und den Inhalt, können abgeleitet werden. So wie Daten können genutzt werden, um es zu verbessern oder die Benutzer Erfahrung zu verbessern das System und die Software.

Wenn du “Ich stimme zu” klickst, erlaubst du uns, die Cookies zu benutzen die Geräte Bezeichnung, den Web oder ähnliche Technologien zu benutzen. Deine Settings, können in deinem Gerät bei deinem Browser geändert werden.

Für den bestimmten Zweck, berechtigten Interessen beruhen darauf, mehr als auf den Inhalt. Du kannst mehr darüber in unseren Privaten und Cookie Politik lesen.